Starlink 32342

operational
NORAD ID: 61217 Int'l Des: 2024-171 Owner: SPXS Country: US Constellation: starlink
LEOCIRCULAR

Starlink 32342について

説明を読み込み中...

リアルタイム位置

3D地球を読み込み中...

次回通過

高度履歴

Altitude vs Time

uPlot chart will show altitude changes over time

軌道要素

1 61217U 24171T 26034.49710472 -.00000141 00000-0 73773-5 0 9990
2 61217 53.1601 121.2494 0001187 93.5726 266.5410 15.30186010 78045
Epoch: Feb 3, 2026 • Age: 21 hours

現在のステータス

高度 475.3 km
速度 7.63 km/s
衛星直下点 6.79°N, 21.71°E
打ち上げ日 Sep 20, 2024
運用期間 1.3 years
タイプ internet

技術仕様

分類 Payload
質量 730.00 kg
乾燥質量 700.00 kg
総質量 730.00 kg
長さ 0.30 m
直径 4.10 m
スパン 29.00 m
形状 Box + pan
製造者 SPXS
バスタイプ Starlink V2M
フェーズステータス In Orbit
所有者/国 SPXS/US

大規模コンステレーション

Loading constellations...